Back to catalog

CZ-6A DEB

AlivePO
NORAD 54358·DEBRIS·🇨🇳 China

Launched Nov 11, 2022 from Taiyuan Satellite Launch Center

Loading…

Next Passes (next 24 hours)

TLE

FreshSource: Space-Track

Epoch: Sep 13, 2026, 16:43 UTC

1 54358U 22151DD  26256.69671287  .00014064  00000-0  13205-2 0  9991
2 54358  98.4479 338.1090 0079501 202.7090 157.0603 14.91682140205155

Track CZ-6A DEB in real time with AllMySat

Download on the App Store